[Iaude] MPEC G114: 2024 GT1 [a=1.25,e=0.19,i=27.8,H=24.2]
    mpec at cfa.harvard.edu 
    mpec at cfa.harvard.edu
       
    Tue Apr  9 09:57:36 EDT 2024
    
    
  
M.P.E.C. 2024-G114                                Issued 2024 April 9, 13:56 UT
     The Minor Planet Electronic Circulars contain information on unusual
         minor planets, routine data on comets and natural satellites,
         and occasional editorial announcements.  They are published
    on behalf of Division F of the International Astronomical Union by the
          Minor Planet Center, Smithsonian Astrophysical Observatory,
                          Cambridge, MA 02138, U.S.A.
			  
             Prepared using the Tamkin Foundation Computer Network
                              MPC at CFA.HARVARD.EDU
            URL https://www.minorplanetcenter.net/    ISSN 1523-6714
                                    2024 GT1                                    
Observations:
     K24G01T*1C2024 04 07.28664212 41 42.720+03 51 32.11         20.65GVEG114G96
     K24G01T 1C2024 04 07.29174612 41 42.688+03 52 26.47         22.16GVEG114G96
     K24G01T 1C2024 04 07.29684512 41 42.652+03 53 20.65         21.16GVEG114G96
     K24G01T 1C2024 04 07.30193412 41 42.587+03 54 13.54         21.26GVEG114G96
     K24G01T KC2024 04 07.39672212 41 41.906+04 10 59.30         21.39GVEG114I52
     K24G01T KC2024 04 07.39958212 41 41.903+04 11 29.80         22.45GVEG114I52
     K24G01T KC2024 04 07.40244212 41 41.809+04 12 00.43         21.10GVEG114I52
     K24G01T KC2024 04 07.40530912 41 41.903+04 12 30.10         21.71GVEG114I52
     K24G01T KC2024 04 08.19945512 41 54.330+06 33 47.27         21.22GVEG114V06
     K24G01T KC2024 04 08.20164912 41 54.316+06 34 10.70         21.04GVEG114V06
     K24G01T KC2024 04 08.20384212 41 54.294+06 34 34.32         20.72GVEG114V06
     K24G01T KC2024 04 08.20603612 41 54.301+06 34 57.86         21.08GVEG114V06
     K24G01T  C2024 04 08.35494812 41 53.111+07 01 34.40         20.9 GVEG114H01
     K24G01T  C2024 04 08.35857712 41 53.096+07 02 13.16         20.8 GVEG114H01
     K24G01T  C2024 04 08.37057412 41 53.035+07 04 21.87         20.7 GVEG114H01
     K24G01T  C2024 04 08.37631112 41 53.022+07 05 23.41         20.6 GVEG114H01
     K24G01T  C2024 04 09.31664712 42 08.441+09 54 19.85         21.06wXEG114F52
     K24G01T  C2024 04 09.32779212 42 08.388+09 56 20.88         20.85wXEG114F52
     K24G01T  C2024 04 09.35008812 42 08.236+10 00 21.89         21.12wXEG114F52
Observer details:
F52 Pan-STARRS 2, Haleakala.  Observers J. Herman, T. Lowe, P. Minguez, A.
    Schultz, I. Smith.  Measurers K. Chambers, T. de Boer, J. Fairlamb, H.
    Gao, M. Huber, C.-C. Lin, E. Magnier, Y. Ramanjooloo, R. Wainscoat, R.
    Weryk.  1.8-m Ritchey-Chretien + CCD.
G96 Mt. Lemmon Survey.  Observer H. Groeller.  Measurers T. Beuden, V. F.
    Carvajal, D. Fay, J. B. Fazekas, D. C. Fuls, A. R. Gibbs, A. D. Grauer, H.
    Groeller, J. K. Hogan, R. A. Kowalski, S. M. Larson, G. J. Leonard, D.
    Rankin, R. L. Seaman, F. C. Shelly, K. W. Wierzchos.  1.5-m reflector +
    10K CCD.
H01 Magdalena Ridge Observatory, Socorro.  Observers W. H. Ryan, E. V. Ryan.
    Measurer W. H. Ryan.  2.4-m f/8.9 Ritchey-Chretien + CCD.
I52 Steward Observatory, Mt. Lemmon Station.  Observer J. K. Hogan.  Measurers
    T. Beuden, V. F. Carvajal, D. Fay, J. B. Fazekas, D. C. Fuls, A. R. Gibbs,
    A. D. Grauer, H. Groeller, J. K. Hogan, R. A. Kowalski, S. M. Larson, G.
    J. Leonard, D. Rankin, R. L. Seaman, F. C. Shelly, K. W. Wierzchos.  1.0-m
    prime focus + CCD.
V06 Catalina Sky Survey-Kuiper.  Observer J. K. Hogan.  Measurers T. Beuden,
    V. F. Carvajal, D. Fay, J. B. Fazekas, D. C. Fuls, A. R. Gibbs, A. D.
    Grauer, H. Groeller, J. K. Hogan, R. A. Kowalski, S. M. Larson, G. J.
    Leonard, D. Rankin, R. L. Seaman, F. C. Shelly, K. W. Wierzchos.  1.55-m
    reflector + 1K CCD.
Orbital elements:
2024 GT1                                                 Earth MOID = 0.1555 AU
Epoch 2024 Mar. 31.0 TT = JDT 2460400.5                 MPC                     
M 296.31524              (2000.0)            P               Q                  
n   0.70755595     Peri.   81.31311     +0.06864717     +0.99103619             
a   1.2472749      Node   194.23405     -0.99512869     +0.07616856             
e   0.1879051      Incl.   27.78170     +0.07075632     +0.10975255             
P   1.39           H   24.29          G   0.15           U   8                  
Residuals in seconds of arc
240407 G96  0.1-  0.0     240407 I52  0.3+  0.3-    240408 H01  0.1-  0.0
240407 G96  0.1+  0.3+    240408 V06  0.1+  0.1+    240408 H01  0.1+  0.0
240407 G96  0.2+  0.4+    240408 V06  0.0   0.0     240409 F52  0.1+  0.3-
240407 G96  0.1-  0.7-    240408 V06  0.2-  0.0     240409 F52  0.1+  0.2+
240407 I52  0.2-  0.0     240408 V06  0.1+  0.0     240409 F52  0.1-  0.1+
240407 I52  0.1-  0.2+    240408 H01  0.1-  0.0
240407 I52 (1.3-  0.5+)   240408 H01  0.0   0.1-
Ephemeris:
2024 GT1                 a,e,i = 1.25, 0.19, 28                  q = 1.0129
Date    TT    R. A. (2000) Decl.     Delta      r    Elong.  Phase     V
2024 03 10    12 35 58.6 -40 55 32   0.3381  1.2444   131.8    36.5    23.9
...
2024 03 25    12 40 00.7 -26 45 53   0.2212  1.2005   154.4    21.0    22.4
...
2024 04 02    12 40 58.5 -10 39 29   0.1782  1.1770   174.1     5.0    21.3
...
2024 04 08    12 41 50.4 +05 58 27   0.1628  1.1595   165.4    12.6    21.4
2024 04 09    12 42 02.4 +08 57 30   0.1619  1.1566   162.0    15.6    21.5
2024 04 10    12 42 15.8 +11 57 13   0.1616  1.1538   158.5    18.5    21.6
...
2024 04 16    12 44 16.6 +29 04 41   0.1697  1.1367   138.8    35.6    22.2
...
2024 04 24    12 49 22.7 +46 29 40   0.2011  1.1148   118.2    52.7    23.0
...
2024 05 09    13 08 17.7 +63 37 35   0.2854  1.0773    96.0    68.8    24.1
A. U. Tomatic                (C) Copyright 2024 MPC           M.P.E.C. 2024-G114
    
    
More information about the Iaude
mailing list